EHI
0 0 0 0 0 0 0 0 0 0 0 0 0 0 0 0 0 0 0 0 0 0 0 0 1 5 6 7 9 9 6 2 0 0 0 1 2 2 1 0 0 0 0 0 0 0 0 0 0
0 0 0 0 0 0 0 0 0 0 0 0 0 0 0 0 0 0 0 0 0 0 0 0 1 5 6 5 6 7 5 2 0 0 0 0 1 1 0 0 0 0 0 0 0 0 0 0 0
0 0 0 0 0 0 0 0 0 0 0 0 0 0 0 0 0 0 0 0 0 0 0 0 1 2 3 3 6 8 7 4 1 0 0 0 0 0 0 0 0 0 0 0 0 0 0 0 0
0 0 0 0 0 0 0 0 0 0 0 0 0 0 0 0 0 1 1 0 0 0 0 0 0 2 4 7 14 21 22 16 8 2 0 0 0 0 0 0 0 0 0 0 0 0 0 0 0
0 0 0 0 0 0 0 0 0 0 0 0 0 0 0 0 1 3 2 1 0 0 0 0 3 10 17 22 32 43 44 38 25 11 3 0 0 0 0 0 0 0 0 0 0 0 0 0 0
0 0 0 0 0 0 0 0 0 0 0 1 1 0 0 0 2 4 3 1 0 0 0 0 8 25 37 42 50 58 62 57 43 22 6 1 0 0 0 0 0 0 0 0 0 0 0 0 0
0 0 0 0 0 0 0 0 0 0 0 1 2 1 0 0 2 3 2 0 0 0 0 0 8 24 35 41 48 54 57 53 41 21 6 1 0 0 0 0 0 0 0 0 0 0 0 0 0
0 0 0 0 0 0 0 0 0 0 0 1 1 1 1 2 2 2 1 0 0 0 0 0 3 9 13 18 26 31 31 28 20 11 3 0 0 0 0 0 0 0 0 0 0 0 0 0 0
0 0 0 0 0 0 0 0 0 0 0 1 2 7 13 13 7 1 0 0 1 1 1 1 0 0 0 2 6 9 8 6 4 2 1 0 0 0 0 0 0 0 0 0 0 0 0 0 0
0 0 0 0 0 0 0 0 0 0 1 5 15 29 40 33 14 2 0 1 3 4 4 2 1 0 0 0 0 1 1 0 0 0 0 0 0 0 0 0 0 0 0 0 0 0 0 0 0
0 0 0 0 0 0 0 0 0 0 1 13 39 63 64 42 16 3 0 1 3 4 4 3 1 0 0 0 0 0 0 0 0 0 0 0 0 0 0 0 0 0 0 0 0 0 0 0 0
0 0 0 0 0 0 0 0 0 0 3 24 62 85 73 40 13 2 0 0 1 2 2 1 0 0 0 0 0 0 0 0 0 0 0 0 0 0 0 0 0 0 0 0 0 0 0 0 0
0 0 0 0 0 0 0 0 0 1 11 41 79 92 72 37 11 2 0 0 0 1 1 0 0 0 0 0 0 0 0 0 0 0 0 0 0 0 0 0 0 0 0 0 0 0 0 0 0
0 0 0 0 0 0 0 0 0 6 29 65 91 93 70 36 12 3 1 0 0 0 0 0 0 0 0 0 0 0 0 0 0 0 0 0 0 0 0 0 0 0 0 0 0 0 0 0 0
0 0 0 0 0 0 0 0 0 12 47 81 95 91 70 38 13 4 2 1 0 0 0 0 0 0 0 0 0 0 0 0 0 0 0 0 0 0 0 0 0 0 0 0 0 0 0 0 0
0 0 0 0 0 0 0 0 0 14 50 81 90 86 71 40 12 4 3 2 0 0 0 0 0 0 0 0 0 0 0 0 0 0 0 0 0 0 0 0 0 0 0 0 0 0 0 0 0
0 0 0 0 0 0 0 0 0 10 38 66 78 80 71 43 14 3 2 1 0 0 0 0 0 0 0 0 0 0 0 0 0 0 0 0 0 0 0 0 0 0 0 0 0 0 0 0 0
0 0 0 0 0 0 0 0 0 4 18 39 56 64 61 40 13 2 1 0 0 0 0 0 0 0 0 0 0 0 0 0 0 0 0 0 0 0 0 0 0 0 0 0 0 0 0 0 0
0 0 0 0 0 0 0 0 0 1 4 13 25 35 37 27 11 2 0 0 0 0 0 0 0 0 0 0 0 0 0 0 0 0 0 0 0 0 0 0 0 0 0 0 0 0 0 0 0
0 0 0 0 0 0 0 0 0 0 0 1 5 9 13 15 12 5 1 0 0 0 0 0 0 0 0 0 0 0 0 0 0 0 0 0 0 0 0 0 0 0 0 0 0 0 0 0 0
0 0 0 0 0 0 0 0 0 0 0 0 0 1 5 13 14 7 1 0 0 0 0 0 0 0 0 0 0 0 0 0 0 0 0 0 0 0 0 0 0 0 0 0 0 0 0 0 0
0 0 0 0 0 0 0 0 0 0 0 0 1 3 10 18 17 6 0 0 0 0 0 0 0 0 0 0 0 0 0 0 0 0 0 0 0 0 0 0 0 0 0 0 0 0 0 0 0
0 0 0 0 0 0 0 0 0 0 0 0 6 17 28 31 19 5 0 0 0 0 0 0 0 0 0 0 0 0 0 0 0 0 0 0 0 0 0 0 0 0 0 0 0 0 0 0 0
0 0 0 0 0 0 0 0 0 0 0 3 18 40 50 39 19 4 0 0 0 0 0 0 0 0 0 0 0 0 0 0 0 0 0 0 0 0 0 0 0 0 0 0 0 0 0 0 0
0 0 0 0 0 0 0 0 0 0 0 6 28 53 55 35 13 2 0 0 0 0 0 0 0 0 0 0 0 0 0 0 0 0 0 0 0 0 0 0 0 0 0 0 0 0 0 0 0
0 0 0 0 0 0 0 0 0 0 1 10 33 51 44 23 7 1 0 0 0 0 0 0 0 0 0 0 0 0 0 0 0 0 0 0 0 0 0 0 0 0 0 0 0 0 0 0 0
0 0 0 0 0 0 0 0 0 0 2 16 37 43 30 13 3 0 0 0 0 0 0 0 0 0 0 0 0 0 0 0 0 0 0 0 0 0 0 0 0 0 0 0 0 0 0 0 0
0 0 0 0 0 0 0 0 0 0 3 18 34 33 19 6 1 0 0 0 0 0 0 0 0 0 0 0 0 0 0 0 0 0 0 0 0 0 0 0 0 0 0 0 0 0 0 0 0
0 0 0 0 0 0 0 0 0 0 2 12 21 18 9 3 0 0 0 0 0 0 0 0 0 0 0 0 0 0 0 0 0 0 0 0 0 0 0 0 0 0 0 0 0 0 0 0 0
0 0 0 0 0 0 0 0 0 0 1 6 11 9 4 1 0 0 0 0 0 0 0 0 0 0 0 0 0 0 0 0 0 0 0 0 0 0 0 0 0 0 0 0 0 0 0 0 0
Wind_Speed
3 4 3 3 6 5 2 4 2 1 2 3 5 4 4 4 3 2 1 6 8 7 5 7 9 10 11 11 11 12 12 12 11 10 10 9 8 8 8 8 7 7 7 6 5 4 3 4 4
2 3 3 5 5 1 4 4 2 3 4 5 4 3 3 2 2 3 2 4 7 6 5 5 10 10 11 11 11 11 12 11 10 10 9 8 8 7 7 8 7 7 7 6 5 3 2 2 3
1 3 4 5 3 4 3 2 3 4 6 5 4 4 3 1 3 4 3 7 6 5 4 6 11 11 11 11 12 12 11 11 10 9 8 7 6 6 5 6 6 6 5 5 4 2 2 3 4
3 5 5 4 3 6 5 3 6 8 3 2 4 4 3 2 4 5 8 8 7 5 4 6 10 10 10 11 12 12 12 11 9 8 7 5 5 4 3 4 4 4 3 2 2 2 4 5 5
4 5 4 2 5 5 5 5 8 9 6 4 5 4 2 4 7 11 9 7 7 5 5 6 9 9 10 11 11 11 11 10 8 6 6 4 3 2 2 2 2 1 1 1 3 5 5 6 6
5 5 4 2 6 6 5 6 9 7 5 6 6 4 2 3 8 9 7 6 5 5 5 6 10 11 11 11 11 10 9 9 8 6 5 4 3 1 1 1 1 1 1 2 4 4 4 5 6
5 4 2 3 5 6 3 5 10 8 7 7 8 6 2 3 6 8 6 6 5 5 5 5 5 8 11 11 10 10 9 8 8 7 6 4 2 1 1 1 1 1 1 2 2 2 3 3 5
5 5 1 2 3 4 3 2 4 8 6 6 6 8 8 7 8 8 6 5 4 4 5 5 4 4 4 5 9 10 9 8 7 7 6 4 3 1 1 1 1 1 1 0 1 2 2 4 5
4 5 2 4 2 3 2 0 3 6 8 5 4 5 7 15 12 9 5 4 5 6 5 4 4 4 4 4 6 7 8 7 6 4 4 3 1 1 2 1 2 3 2 1 2 2 3 4 6
4 3 6 5 4 3 4 4 7 7 6 4 4 6 14 15 13 12 9 10 9 9 6 4 5 5 4 4 3 3 2 3 2 1 1 2 2 2 3 4 4 3 2 3 4 4 4 4 3
5 6 5 5 5 4 3 4 7 12 7 9 12 17 19 16 13 12 12 10 9 7 7 6 5 4 4 3 3 2 2 2 2 2 3 2 2 2 3 2 4 4 5 3 4 4 2 2 2
4 6 5 5 3 2 3 3 5 10 10 11 18 23 22 18 17 15 14 11 6 6 6 5 4 3 3 3 3 2 2 2 2 2 2 2 1 1 2 2 2 2 1 2 2 2 3 3 3
4 4 4 6 9 5 4 5 5 4 4 13 17 19 20 18 15 11 8 6 5 5 4 4 4 4 3 3 2 2 2 2 2 2 1 1 0 1 1 1 1 2 1 2 2 2 3 4 4
3 4 6 7 6 2 4 2 2 2 11 17 20 19 18 17 15 10 8 7 5 4 3 3 4 4 4 3 2 2 3 3 3 3 4 3 2 1 1 1 1 2 1 1 1 1 2 2 2
3 4 6 4 5 3 2 1 1 4 14 18 18 18 17 14 12 11 9 6 4 4 3 4 5 5 5 5 4 3 4 4 4 4 5 5 4 3 3 3 3 3 2 2 2 2 1 2 2
2 2 3 6 6 6 3 2 1 5 15 17 16 16 15 11 9 7 6 5 6 5 5 5 6 7 6 6 6 5 5 6 5 4 5 6 6 5 4 3 3 3 3 3 3 3 2 3 3
4 0 2 6 5 5 4 4 2 5 11 15 17 16 13 9 5 4 5 7 7 6 7 7 7 8 8 8 7 7 6 6 5 5 5 5 6 6 4 4 3 4 4 4 3 3 3 3 4
3 2 2 5 5 5 4 5 3 3 8 12 14 14 12 10 6 6 7 7 7 7 7 8 8 8 8 7 7 7 7 6 5 5 6 6 6 7 5 5 5 5 4 4 4 4 4 3 3
4 3 5 7 4 2 2 4 5 2 2 3 5 6 7 8 7 8 7 8 8 7 8 7 7 6 5 4 4 5 4 4 5 6 7 7 7 7 7 5 5 5 5 5 4 3 4 4 3
3 2 6 7 1 2 1 1 2 3 1 2 2 2 4 7 8 8 8 7 8 8 8 7 6 5 4 4 4 4 5 4 4 4 7 8 7 7 6 6 5 4 4 5 5 4 2 2 3
4 5 6 8 3 1 2 3 2 1 2 4 5 5 6 8 9 9 10 10 9 8 7 7 7 7 7 6 6 5 5 4 4 5 4 6 7 7 6 5 4 4 4 3 2 2 2 2 2
5 8 8 7 3 4 3 4 5 1 1 4 6 7 8 8 9 9 11 11 10 9 9 9 9 9 8 6 7 7 5 4 3 2 3 5 6 6 6 5 4 4 3 2 3 2 2 2 2
9 7 5 5 4 2 1 4 7 1 5 9 9 10 10 10 11 11 11 12 10 10 10 10 11 10 9 8 8 8 7 5 3 3 5 4 4 5 5 4 4 3 2 2 3 3 2 1 2
7 2 5 4 4 3 7 7 7 8 12 10 13 13 12 12 13 13 12 12 11 10 10 10 11 10 8 9 8 8 8 6 5 4 3 3 2 3 4 3 3 2 1 2 2 2 2 2 2
4 4 4 4 3 8 5 6 11 12 11 10 15 15 13 13 13 14 14 13 12 11 10 9 10 9 7 8 7 6 6 5 5 3 2 1 1 2 3 2 2 2 2 2 1 1 1 1 2
7 10 8 6 6 8 2 8 10 7 6 8 14 15 14 14 13 14 14 13 12 11 9 9 9 7 6 6 5 4 4 3 2 2 1 1 1 2 3 3 3 3 3 2 1 1 2 2 3
7 7 8 7 3 4 7 7 6 3 3 13 18 18 17 15 15 15 13 12 11 10 9 8 8 7 5 5 5 4 3 3 2 1 0 1 2 2 3 4 4 4 4 3 2 2 3 3 4
8 8 6 7 6 7 7 5 7 7 9 15 20 19 17 16 15 14 12 10 9 8 7 7 7 7 5 4 4 3 2 2 1 1 2 2 3 3 4 4 4 5 5 4 4 4 5 5 5
5 5 5 5 5 7 7 10 9 11 16 19 18 17 17 17 15 12 9 8 8 7 7 7 6 5 4 3 2 1 0 1 1 2 3 3 3 4 5 5 5 5 6 5 5 7 7 7 8
5 7 8 6 6 6 4 11 5 7 11 13 15 17 17 17 14 11 10 8 7 7 6 5 4 4 3 2 1 1 1 1 2 3 4 4 4 5 5 5 6 6 7 6 7 9 9 8 9
Wind_Direction
174 128 111 74 54 48 279 260 242 111 136 154 134 143 145 145 171 204 46 123 132 139 146 153 158 156 149 139 133 130 129 130 130 130 128 124 122 121 124 126 128 130 131 130 125 114 90 64 48
138 135 69 64 83 42 278 249 216 186 165 127 105 94 88 93 85 111 119 126 130 134 132 147 159 157 153 147 139 134 132 132 133 134 137 139 140 140 145 149 150 147 144 143 145 141 111 62 28
130 80 89 77 119 187 231 211 160 129 133 120 109 69 80 148 137 150 141 129 119 124 131 162 160 158 155 150 142 138 136 136 137 139 141 146 151 157 163 165 165 162 158 158 159 142 74 36 21
89 51 56 74 232 223 214 174 141 133 136 88 103 93 57 43 144 133 128 135 131 133 145 165 158 155 152 149 146 145 144 144 144 144 145 149 157 166 177 182 180 176 178 182 147 86 62 51 40
63 78 59 353 263 251 228 197 158 154 165 125 109 112 51 16 100 119 132 142 142 143 150 159 155 152 151 153 153 152 149 145 142 142 143 142 147 164 190 201 187 174 171 106 82 69 55 40 25
60 70 81 283 278 278 259 189 161 151 136 119 122 115 49 93 119 131 135 134 141 151 155 159 161 156 153 157 157 152 147 142 139 137 135 135 138 160 224 222 196 168 137 97 76 62 46 33 21
110 105 160 242 282 296 281 160 155 141 136 152 145 123 116 147 140 131 125 128 144 158 160 162 161 157 157 155 151 146 143 141 140 140 140 142 141 141 158 169 196 179 133 108 77 50 31 31 24
126 104 167 251 264 296 316 154 145 128 142 134 142 152 169 181 147 125 117 126 145 162 167 161 145 136 135 146 155 153 151 151 152 155 157 160 163 165 173 146 244 229 208 198 43 8 4 7 9
94 84 227 235 236 299 325 136 109 108 115 136 160 177 165 148 141 134 132 148 171 180 175 149 139 137 136 143 163 158 161 163 164 169 183 167 84 26 7 320 273 260 250 284 319 323 329 344 358
110 154 228 225 215 264 292 208 153 118 128 136 107 114 132 148 155 162 172 180 187 189 176 155 158 154 151 154 131 120 121 134 127 98 68 61 38 4 347 333 322 320 328 333 330 325 333 353 357
172 198 236 251 236 249 264 217 161 135 176 189 168 154 152 161 169 179 187 189 190 180 172 176 172 162 153 133 117 110 105 110 107 93 76 60 39 10 9 8 5 9 6 4 354 354 353 332 315
191 238 232 268 267 273 240 187 168 177 198 176 165 157 159 170 182 189 192 195 182 167 175 176 162 146 136 113 117 123 121 116 107 90 83 81 43 8 10 7 354 0 352 324 316 312 316 310 300
217 267 273 265 290 260 222 196 194 214 131 140 147 157 168 179 189 196 195 186 173 171 168 163 140 130 122 117 119 124 121 112 103 81 64 87 121 315 345 341 327 313 299 284 292 306 321 329 332
248 257 288 291 296 267 171 192 151 169 140 143 155 169 178 185 187 187 191 189 178 160 158 134 122 118 117 115 115 106 95 88 77 62 45 45 55 58 56 35 5 350 343 321 281 309 345 348 346
306 301 318 316 332 340 92 62 151 166 144 152 166 177 184 189 186 192 191 176 145 130 131 123 118 109 109 107 101 90 87 88 80 69 59 62 67 70 68 52 33 15 21 43 60 53 62 31 9
6 12 317 305 348 0 65 276 298 173 154 162 173 182 188 192 191 187 165 127 113 114 115 118 117 109 106 102 96 91 89 91 86 80 72 70 73 78 76 69 49 35 45 48 54 40 42 27 6
23 41 265 306 1 28 53 271 266 194 174 173 179 185 185 181 174 147 123 113 110 113 113 108 111 113 109 102 96 90 86 83 82 78 74 73 77 84 87 75 54 44 48 39 38 41 40 23 357
233 244 276 280 309 359 349 286 304 222 199 191 188 184 178 172 153 114 103 103 100 98 103 107 109 113 113 107 99 90 76 67 64 65 65 67 67 67 69 63 50 51 54 39 34 47 46 31 350
183 209 265 267 281 319 320 319 338 354 180 204 210 199 172 140 110 102 96 96 91 87 96 104 114 118 119 112 106 97 82 66 58 56 54 55 57 58 58 57 49 49 56 45 32 35 42 22 357
177 241 279 293 284 173 181 310 343 34 86 157 165 160 149 137 125 111 97 89 92 97 94 92 95 93 85 88 92 96 101 80 65 54 47 44 49 50 60 58 55 50 56 46 33 27 17 354 9
207 208 244 263 312 115 129 314 305 20 75 97 109 120 138 158 144 124 110 103 98 92 92 92 81 75 70 82 95 93 80 69 49 42 40 35 48 56 59 62 65 58 62 56 32 26 17 313 308
242 224 220 252 272 260 178 260 269 209 183 169 152 146 150 151 142 128 119 109 102 96 91 88 82 74 66 69 84 87 88 86 70 67 60 45 45 49 52 53 55 54 46 32 355 18 345 316 307
219 233 218 236 225 246 225 202 273 201 231 216 182 166 158 151 140 129 120 113 105 100 95 89 83 75 70 72 81 88 87 89 84 72 66 53 35 30 30 34 33 32 23 12 1 356 350 336 308
211 79 51 49 88 246 224 184 248 219 216 200 178 173 161 147 134 125 119 113 106 99 92 89 85 75 73 77 78 90 97 96 86 70 60 37 11 3 7 13 18 12 360 346 342 343 341 333 310
144 114 13 339 350 248 220 173 236 231 224 186 173 168 159 146 136 131 126 119 114 106 99 94 93 84 78 81 79 87 97 100 103 102 82 38 345 324 324 338 335 324 312 308 327 338 327 299 289
186 155 171 209 238 270 261 212 246 267 250 163 158 159 157 147 138 135 132 129 124 118 112 108 106 103 97 96 95 97 107 114 123 136 160 234 262 270 281 307 310 307 307 304 294 271 271 260 279
160 189 184 167 224 263 274 272 284 314 189 161 158 162 163 149 141 138 136 134 132 129 124 125 124 120 121 125 126 127 134 138 143 149 178 278 291 286 309 315 314 308 299 283 268 258 265 273 278
166 156 117 139 175 247 267 255 244 214 188 173 170 169 158 144 140 140 140 139 133 128 124 126 131 136 144 148 149 148 154 150 129 58 349 323 315 310 312 304 297 293 287 275 264 264 265 272 278
150 143 150 148 173 195 250 260 231 206 188 183 174 161 152 145 145 145 139 130 122 119 122 125 133 135 139 141 139 141 144 10 4 330 303 300 299 301 298 293 291 288 283 271 257 259 267 269 278
188 179 150 164 224 203 209 261 280 227 184 168 158 153 147 146 146 142 131 124 122 121 123 129 135 134 144 164 194 227 271 316 318 301 292 286 284 287 287 289 287 284 279 269 256 261 267 267 275